CPA170 YPPH-VHHH

Flight info

Callsign CPA170
Flight time N/A
Altitude 35000
Route AVNEX Y15 ESDEG/N0496F360 Q587 AUSGA/N0492F380 Q587 METUM R592 BLI M522 ELANG/N0490F390 M522 VINIK M754 AKOTA/N0486F400 A583 SABNO V542 BETTY
Aircraft A35K/H-SDE2E3GHIJ3J4J5LM1ORWXY/LB1D1

Departure

Time 2026-04-29 13:37
Airport Perth International Airport (YPPH)

Arrival

Time N/A
Airport Hong Kong International Airport (VHHH)
Time Latitude Longitude Altitude Speed Heading
2026-04-29 13:19 -31.94054 115.97220 63 ft 0 kts 171°
2026-04-29 13:26 -31.94051 115.97220 73 ft 3 kts 170°
2026-04-29 13:26 -31.94025 115.97212 66 ft 4 kts 160°
2026-04-29 13:26 -31.94000 115.97200 63 ft 4 kts 149°
2026-04-29 13:26 -31.93978 115.97181 63 ft 4 kts 135°
2026-04-29 13:27 -31.93961 115.97157 63 ft 4 kts 116°
2026-04-29 13:27 -31.93955 115.97140 63 ft 0 kts 104°
2026-04-29 13:31 -31.93957 115.97147 63 ft 0 kts 104°
2026-04-29 13:32 -31.93957 115.97149 63 ft 2 kts 104°
2026-04-29 13:32 -31.93963 115.97193 66 ft 9 kts 88°
2026-04-29 13:32 -31.93935 115.97278 68 ft 13 kts 64°
2026-04-29 13:32 -31.93877 115.97354 63 ft 13 kts 13°
2026-04-29 13:33 -31.93789 115.97316 68 ft 15 kts 329°
2026-04-29 13:33 -31.93696 115.97252 64 ft 17 kts 330°
2026-04-29 13:33 -31.93591 115.97181 63 ft 18 kts 326°
2026-04-29 13:33 -31.93495 115.97108 64 ft 12 kts 328°
2026-04-29 13:34 -31.93417 115.97056 69 ft 14 kts 340°
2026-04-29 13:34 -31.93313 115.97066 63 ft 16 kts 14°
2026-04-29 13:34 -31.93196 115.97100 66 ft 18 kts 14°
2026-04-29 13:34 -31.93065 115.97138 67 ft 14 kts 14°
2026-04-29 13:35 -31.92980 115.97158 64 ft 12 kts
2026-04-29 13:35 -31.92932 115.97093 65 ft 12 kts 285°
2026-04-29 13:35 -31.92910 115.96991 63 ft 14 kts 284°
2026-04-29 13:35 -31.92891 115.96883 66 ft 11 kts 270°
2026-04-29 13:36 -31.92942 115.96823 63 ft 12 kts 198°
2026-04-29 13:36 -31.93034 115.96796 67 ft 20 kts 194°
2026-04-29 13:36 -31.93400 115.96690 66 ft 88 kts 194°
2026-04-29 13:36 -31.94197 115.96457 65 ft 146 kts 194°
2026-04-29 13:37 -31.95302 115.96150 426 ft 164 kts 193°
2026-04-29 13:37 -31.96384 115.95868 1210 ft 159 kts 192°
2026-04-29 13:37 -31.97515 115.95588 1503 ft 182 kts 191°
2026-04-29 13:37 -31.98826 115.95204 1802 ft 206 kts 195°
2026-04-29 13:38 -32.00296 115.94735 2095 ft 231 kts 195°
2026-04-29 13:38 -32.01786 115.93843 2653 ft 246 kts 222°
2026-04-29 13:38 -32.02452 115.92745 3049 ft 253 kts 246°
2026-04-29 13:38 -32.02695 115.91397 3480 ft 259 kts 269°
2026-04-29 13:39 -32.01248 115.81642 7145 ft 267 kts 279°
2026-04-29 13:40 -32.00951 115.79482 7997 ft 268 kts 279°
2026-04-29 13:40 -32.00663 115.77314 8872 ft 268 kts 279°
2026-04-29 13:40 -32.00383 115.75169 9729 ft 269 kts 279°
2026-04-29 13:40 -32.00096 115.72968 10419 ft 277 kts 278°
2026-04-29 13:41 -31.99791 115.70619 10777 ft 296 kts 278°
2026-04-29 13:41 -31.99474 115.68178 11078 ft 315 kts 278°
2026-04-29 13:41 -31.99079 115.65560 11403 ft 333 kts 282°
2026-04-29 13:41 -31.98568 115.62834 11735 ft 349 kts 282°
2026-04-29 13:42 -31.98030 115.59994 12111 ft 360 kts 282°
2026-04-29 13:42 -31.97488 115.57085 12690 ft 366 kts 282°
2026-04-29 13:42 -31.96938 115.54141 13322 ft 371 kts 283°
2026-04-29 13:42 -31.96117 115.51246 13956 ft 375 kts 293°
2026-04-29 13:43 -31.94957 115.48486 14535 ft 378 kts 296°
2026-04-29 13:43 -31.93723 115.45735 15132 ft 381 kts 297°
2026-04-29 13:43 -31.92273 115.43114 15729 ft 385 kts 308°
2026-04-29 13:43 -31.90285 115.40971 16343 ft 392 kts 323°
2026-04-29 13:44 -31.87822 115.39542 16968 ft 399 kts 337°
2026-04-29 13:44 -31.85168 115.38525 17592 ft 403 kts 340°
2026-04-29 13:44 -31.82477 115.37557 18206 ft 406 kts 339°
2026-04-29 13:44 -31.79764 115.36573 18760 ft 409 kts 339°
2026-04-29 13:45 -31.77041 115.35576 19302 ft 411 kts 339°
2026-04-29 13:45 -31.74280 115.34650 19832 ft 417 kts 344°
2026-04-29 13:45 -31.71360 115.34363 20359 ft 427 kts 358°
2026-04-29 13:45 -31.68378 115.34715 20877 ft 434 kts
2026-04-29 13:46 -31.65410 115.35553 21398 ft 444 kts 14°
2026-04-29 13:46 -31.62553 115.37017 21912 ft 453 kts 22°
2026-04-29 13:46 -31.59737 115.38735 22442 ft 458 kts 23°
2026-04-29 13:46 -31.56911 115.40481 22945 ft 462 kts 22°
2026-04-29 13:47 -31.54055 115.42234 23433 ft 466 kts 22°
2026-04-29 13:47 -31.51162 115.43999 23886 ft 470 kts 22°
2026-04-29 13:47 -31.48250 115.45769 24301 ft 474 kts 21°
2026-04-29 13:47 -31.45308 115.47553 24714 ft 478 kts 21°
2026-04-29 13:48 -31.42343 115.49349 25147 ft 482 kts 21°
2026-04-29 13:48 -31.39348 115.51161 25573 ft 486 kts 21°
2026-04-29 13:48 -31.36333 115.52983 25995 ft 490 kts 20°
2026-04-29 13:48 -31.33298 115.54816 26425 ft 493 kts 20°
2026-04-29 13:49 -31.30233 115.56665 26845 ft 497 kts 20°
2026-04-29 13:49 -31.27144 115.58527 27232 ft 501 kts 20°
2026-04-29 13:49 -31.24038 115.60395 27615 ft 504 kts 20°
2026-04-29 13:49 -31.20901 115.62282 28022 ft 508 kts 20°
2026-04-29 13:50 -31.17750 115.64178 28404 ft 512 kts 19°
2026-04-29 13:50 -31.14575 115.66087 28772 ft 515 kts 19°
2026-04-29 13:50 -31.11381 115.68005 29136 ft 518 kts 19°
2026-04-29 13:50 -31.08162 115.69937 29482 ft 522 kts 19°
2026-04-29 13:51 -31.04929 115.71875 29827 ft 525 kts 19°
2026-04-29 13:51 -31.01671 115.73827 30183 ft 527 kts 19°
2026-04-29 13:51 -30.98417 115.75777 30617 ft 525 kts 19°
2026-04-29 13:51 -30.95190 115.77710 31026 ft 524 kts 19°
2026-04-29 13:52 -30.91937 115.79656 31476 ft 522 kts 19°
2026-04-29 13:52 -30.88706 115.81587 31906 ft 521 kts 18°
2026-04-29 13:52 -30.85476 115.83511 32327 ft 519 kts 18°
2026-04-29 13:52 -30.82209 115.85173 32725 ft 508 kts 10°
2026-04-29 13:53 -30.78886 115.86203 33103 ft 493 kts
2026-04-29 13:53 -30.75520 115.86735 33523 ft 486 kts 356°
2026-04-29 13:53 -30.72167 115.87122 33919 ft 483 kts 355°
2026-04-29 13:53 -30.68827 115.87446 34265 ft 481 kts 354°
2026-04-29 13:54 -30.65495 115.87750 34566 ft 480 kts 354°
2026-04-29 13:54 -30.62168 115.88055 34857 ft 480 kts 354°
2026-04-29 13:54 -30.58839 115.88371 35030 ft 482 kts 355°
2026-04-29 13:54 -30.55479 115.88696 35063 ft 487 kts 355°
2026-04-29 13:55 -30.48719 115.89381 35057 ft 487 kts 355°
2026-04-29 13:55 -30.41969 115.90082 35056 ft 487 kts 355°
2026-04-29 13:56 -30.35211 115.90779 35061 ft 487 kts 355°
2026-04-29 13:56 -30.28460 115.91471 35062 ft 487 kts 355°
2026-04-29 13:57 -30.21708 115.92161 35059 ft 487 kts 355°
2026-04-29 13:57 -30.14957 115.92850 35051 ft 487 kts 355°
2026-04-29 13:58 -30.08200 115.93538 35059 ft 487 kts 355°
2026-04-29 13:58 -30.01440 115.94227 35059 ft 488 kts 355°
2026-04-29 13:59 -29.94684 115.94914 35059 ft 487 kts 355°
2026-04-29 13:59 -29.87923 115.95600 35054 ft 488 kts 355°
2026-04-29 14:00 -29.81152 115.96286 35055 ft 488 kts 355°
2026-04-29 14:00 -29.74386 115.96972 35070 ft 488 kts 355°
2026-04-29 14:01 -29.67663 115.97652 35055 ft 488 kts 355°
2026-04-29 14:01 -29.60897 115.98335 35052 ft 489 kts 355°
2026-04-29 14:02 -29.54117 115.99018 35058 ft 489 kts 355°
2026-04-29 14:02 -29.47337 115.99701 35054 ft 489 kts 355°
2026-04-29 14:03 -29.40561 116.00383 35057 ft 489 kts 355°
2026-04-29 14:03 -29.33778 116.01064 35051 ft 490 kts 355°
2026-04-29 14:04 -29.26988 116.01745 35051 ft 490 kts 355°
2026-04-29 14:04 -29.20226 116.02238 35344 ft 478 kts 348°
2026-04-29 14:05 -29.16924 116.02116 35713 ft 473 kts 347°
2026-04-29 14:05 -29.13645 116.01934 35981 ft 471 kts 347°
2026-04-29 14:05 -29.07058 116.01481 36052 ft 477 kts 346°
2026-04-29 14:06 -29.00432 116.01021 36053 ft 476 kts 346°
2026-04-29 14:06 -28.93863 116.00584 36053 ft 476 kts 346°
2026-04-29 14:07 -28.87251 116.00152 36054 ft 476 kts 346°
2026-04-29 14:07 -28.80630 115.99721 36053 ft 476 kts 346°
2026-04-29 14:08 -28.74023 115.99291 36050 ft 476 kts 346°
2026-04-29 14:08 -28.67408 115.98860 36050 ft 476 kts 346°
2026-04-29 14:09 -28.60797 115.98430 36050 ft 476 kts 346°
2026-04-29 14:09 -28.54183 115.98000 36044 ft 476 kts 346°
2026-04-29 14:10 -28.47561 115.97570 36046 ft 477 kts 346°
2026-04-29 14:10 -28.40933 115.97141 36047 ft 477 kts 346°
2026-04-29 14:11 -28.34313 115.96713 36043 ft 477 kts 346°
2026-04-29 14:11 -28.27684 115.96283 36043 ft 478 kts 346°
2026-04-29 14:12 -28.21043 115.95854 36046 ft 478 kts 347°
2026-04-29 14:12 -28.14406 115.95427 36043 ft 478 kts 347°
2026-04-29 14:13 -28.07761 115.95000 36044 ft 478 kts 346°
2026-04-29 14:13 -28.01128 115.94575 36040 ft 477 kts 346°
2026-04-29 14:14 -27.94508 115.94149 36044 ft 477 kts 346°
2026-04-29 14:14 -27.87877 115.93723 36041 ft 477 kts 346°
2026-04-29 14:15 -27.81256 115.93298 36013 ft 477 kts 346°
2026-04-29 14:15 -27.74619 115.92872 36040 ft 478 kts 346°
2026-04-29 14:16 -27.67971 115.92447 36039 ft 478 kts 346°
2026-04-29 14:16 -27.61366 115.92021 36039 ft 479 kts 346°
2026-04-29 14:17 -27.54720 115.91600 35997 ft 479 kts 346°
2026-04-29 14:17 -27.48052 115.91177 36034 ft 480 kts 346°
2026-04-29 14:18 -27.41378 115.90753 36037 ft 481 kts 346°
2026-04-29 14:18 -27.34703 115.90330 36036 ft 481 kts 346°
2026-04-29 14:19 -27.28027 115.89907 36009 ft 481 kts 346°
2026-04-29 14:19 -27.21338 115.89481 36035 ft 482 kts 347°
2026-04-29 14:20 -27.14638 115.89057 36031 ft 482 kts 347°
2026-04-29 14:20 -27.07934 115.88634 36037 ft 482 kts 347°
2026-04-29 14:21 -27.01236 115.88211 36007 ft 482 kts 347°
2026-04-29 14:21 -26.94526 115.87787 36038 ft 484 kts 347°
2026-04-29 14:22 -26.87795 115.87363 36037 ft 484 kts 347°
2026-04-29 14:22 -26.81073 115.86941 36034 ft 484 kts 347°
2026-04-29 14:23 -26.74393 115.86522 36035 ft 484 kts 347°
2026-04-29 14:23 -26.67614 115.86095 36034 ft 486 kts 347°
2026-04-29 14:24 -26.60858 115.85671 36037 ft 486 kts 347°
2026-04-29 14:24 -26.54144 115.85252 36037 ft 486 kts 347°
2026-04-29 14:25 -26.47385 115.84830 36037 ft 486 kts 347°
2026-04-29 14:25 -26.40621 115.84406 36042 ft 488 kts 347°
2026-04-29 14:26 -26.33846 115.83984 36039 ft 488 kts 347°
2026-04-29 14:26 -26.27061 115.83562 36035 ft 488 kts 347°
2026-04-29 14:27 -26.20281 115.83140 36029 ft 488 kts 347°
2026-04-29 14:28 -26.10088 115.82504 36032 ft 490 kts 347°
2026-04-29 14:28 -26.04426 115.82153 36031 ft 490 kts 347°
2026-04-29 14:29 -25.97610 115.81731 36030 ft 490 kts 347°
2026-04-29 14:29 -25.90794 115.81310 36019 ft 490 kts 348°
2026-04-29 14:30 -25.83962 115.80886 36035 ft 492 kts 348°
2026-04-29 14:30 -25.77128 115.80464 36037 ft 492 kts 348°
2026-04-29 14:31 -25.70286 115.80042 36027 ft 493 kts 348°
2026-04-29 14:31 -25.63437 115.79620 36006 ft 492 kts 348°
2026-04-29 14:32 -25.56593 115.79198 36030 ft 493 kts 348°
2026-04-29 14:32 -25.49741 115.78777 36033 ft 493 kts 348°
2026-04-29 14:33 -25.42893 115.78357 36029 ft 493 kts 348°
2026-04-29 14:33 -25.36044 115.77936 36029 ft 493 kts 348°
2026-04-29 14:34 -25.29192 115.77516 36030 ft 493 kts 348°
2026-04-29 14:34 -25.22342 115.77097 36023 ft 493 kts 348°
2026-04-29 14:35 -25.15490 115.76678 36023 ft 493 kts 348°
2026-04-29 14:35 -25.08633 115.76259 35996 ft 493 kts 348°
2026-04-29 14:36 -25.01797 115.75840 36023 ft 494 kts 348°
2026-04-29 14:36 -24.94914 115.75421 36024 ft 494 kts 348°
2026-04-29 14:37 -24.88050 115.75004 36024 ft 494 kts 348°
2026-04-29 14:37 -24.81193 115.74587 35999 ft 494 kts 348°
2026-04-29 14:38 -24.74360 115.74170 36024 ft 495 kts 348°
2026-04-29 14:38 -24.67471 115.73752 36025 ft 496 kts 348°
2026-04-29 14:39 -24.60541 115.73333 36028 ft 496 kts 348°
2026-04-29 14:39 -24.53692 115.72919 36023 ft 496 kts 348°
2026-04-29 14:40 -24.46800 115.72501 36034 ft 497 kts 349°
2026-04-29 14:40 -24.39894 115.72084 36036 ft 497 kts 349°
2026-04-29 14:41 -24.32986 115.71668 36035 ft 497 kts 349°
2026-04-29 14:41 -24.26084 115.71253 36025 ft 497 kts 349°
2026-04-29 14:42 -24.19173 115.70836 36029 ft 497 kts 349°
2026-04-29 14:42 -24.12263 115.70420 36029 ft 497 kts 349°
2026-04-29 14:43 -24.05349 115.70005 36029 ft 497 kts 349°
2026-04-29 14:43 -23.98439 115.69590 36029 ft 497 kts 349°
2026-04-29 14:44 -23.91527 115.69175 36028 ft 498 kts 349°
2026-04-29 14:44 -23.84605 115.68760 36021 ft 498 kts 349°
2026-04-29 14:45 -23.77685 115.68347 36023 ft 498 kts 349°
2026-04-29 14:45 -23.70769 115.67934 36025 ft 498 kts 349°
2026-04-29 14:46 -23.63850 115.67520 36022 ft 498 kts 350°
2026-04-29 14:46 -23.56927 115.67107 36023 ft 499 kts 350°
2026-04-29 14:47 -23.49993 115.66695 36023 ft 499 kts 350°
2026-04-29 14:47 -23.43060 115.66282 36023 ft 499 kts 350°
2026-04-29 14:48 -23.36133 115.65871 36015 ft 499 kts 350°
2026-04-29 14:48 -23.29206 115.65458 36018 ft 498 kts 350°
2026-04-29 14:49 -23.22288 115.65048 36018 ft 498 kts 350°
2026-04-29 14:49 -23.15367 115.64638 36016 ft 498 kts 350°
2026-04-29 14:50 -23.08439 115.64228 36010 ft 498 kts 350°
2026-04-29 14:50 -23.01509 115.63817 36011 ft 499 kts 350°
2026-04-29 14:51 -22.94578 115.63408 36011 ft 499 kts 350°
2026-04-29 14:51 -22.87642 115.62999 36009 ft 499 kts 350°
2026-04-29 14:52 -22.80699 115.62590 35994 ft 499 kts 351°
2026-04-29 14:52 -22.73758 115.62180 36012 ft 500 kts 351°
2026-04-29 14:53 -22.66821 115.61772 36012 ft 500 kts 351°
2026-04-29 14:53 -22.59920 115.61367 36012 ft 500 kts 351°
2026-04-29 14:54 -22.52938 115.60957 36015 ft 500 kts 351°
2026-04-29 14:54 -22.45988 115.60549 36015 ft 500 kts 351°
2026-04-29 14:55 -22.39047 115.60143 36016 ft 500 kts 351°
2026-04-29 14:55 -22.32104 115.59736 36017 ft 500 kts 351°
2026-04-29 14:56 -22.25206 115.59332 36017 ft 500 kts 351°
2026-04-29 14:56 -22.18266 115.58926 36020 ft 500 kts 351°
2026-04-29 14:57 -22.11316 115.58521 36022 ft 500 kts 351°
2026-04-29 14:57 -22.04380 115.58117 36020 ft 499 kts 351°
2026-04-29 14:58 -21.97435 115.57713 36021 ft 500 kts 351°
2026-04-29 14:58 -21.90496 115.57305 36019 ft 500 kts 351°
2026-04-29 14:59 -21.83549 115.56901 36020 ft 500 kts 351°
2026-04-29 14:59 -21.76605 115.56500 36021 ft 500 kts 351°
2026-04-29 15:00 -21.69657 115.56098 36020 ft 500 kts 351°
2026-04-29 15:00 -21.62708 115.55695 36015 ft 500 kts 351°
2026-04-29 15:01 -21.55751 115.55291 36031 ft 501 kts 351°
2026-04-29 15:01 -21.48788 115.54888 36012 ft 501 kts 351°
2026-04-29 15:02 -21.41827 115.54487 36018 ft 501 kts 351°
2026-04-29 15:02 -21.34861 115.54085 36006 ft 501 kts 352°
2026-04-29 15:03 -21.27894 115.53683 36007 ft 502 kts 352°
2026-04-29 15:03 -21.20925 115.53281 36013 ft 502 kts 352°
2026-04-29 15:04 -21.13951 115.52879 36007 ft 502 kts 352°
2026-04-29 15:04 -21.06981 115.52478 36015 ft 502 kts 352°
2026-04-29 15:05 -21.00010 115.52077 36010 ft 502 kts 352°
2026-04-29 15:05 -20.93029 115.51676 36011 ft 502 kts 352°
2026-04-29 15:06 -20.86054 115.51276 36010 ft 502 kts 352°
2026-04-29 15:06 -20.79077 115.50877 36010 ft 502 kts 352°
2026-04-29 15:07 -20.72100 115.50477 36006 ft 502 kts 352°
2026-04-29 15:07 -20.65160 115.50080 36009 ft 503 kts 352°
2026-04-29 15:08 -20.58179 115.49681 36010 ft 503 kts 352°
2026-04-29 15:08 -20.51195 115.49282 36012 ft 503 kts 352°
2026-04-29 15:09 -20.44209 115.48883 36004 ft 503 kts 352°
2026-04-29 15:09 -20.37237 115.48485 36010 ft 503 kts 352°
2026-04-29 15:10 -20.30226 115.48086 36011 ft 504 kts 352°
2026-04-29 15:10 -20.23221 115.47688 36012 ft 503 kts 352°
2026-04-29 15:11 -20.16228 115.47291 36012 ft 504 kts 352°
2026-04-29 15:11 -20.09229 115.46893 36013 ft 504 kts 352°
2026-04-29 15:12 -20.02210 115.46494 36013 ft 505 kts 352°
2026-04-29 15:12 -19.95198 115.46097 36014 ft 505 kts 352°
2026-04-29 15:13 -19.88186 115.45700 36009 ft 505 kts 352°
2026-04-29 15:13 -19.81173 115.45303 36008 ft 505 kts 352°
2026-04-29 15:14 -19.74160 115.44906 36010 ft 505 kts 352°
2026-04-29 15:14 -19.68332 115.44577 36010 ft 505 kts 352°
2026-04-29 15:15 -19.61314 115.44181 36010 ft 505 kts 352°
2026-04-29 15:15 -19.54301 115.43785 36010 ft 505 kts 352°
2026-04-29 15:16 -19.47283 115.43390 36010 ft 505 kts 352°
2026-04-29 15:16 -19.40268 115.42995 36010 ft 505 kts 352°
2026-04-29 15:17 -19.33255 115.42600 36008 ft 505 kts 352°
2026-04-29 15:17 -19.26246 115.42206 36009 ft 505 kts 352°
2026-04-29 15:18 -19.19231 115.41812 36011 ft 505 kts 353°
2026-04-29 15:18 -19.12210 115.41418 36009 ft 505 kts 353°
2026-04-29 15:19 -19.05199 115.41025 36009 ft 505 kts 353°
2026-04-29 15:19 -18.98181 115.40632 36010 ft 505 kts 353°
2026-04-29 15:20 -18.91162 115.40239 36010 ft 505 kts 353°
2026-04-29 15:20 -18.84149 115.39847 36007 ft 505 kts 353°
2026-04-29 15:21 -18.77175 115.39458 36006 ft 505 kts 353°
2026-04-29 15:21 -18.70153 115.39066 36005 ft 505 kts 353°
2026-04-29 15:22 -18.63135 115.38674 35999 ft 505 kts 353°
2026-04-29 15:22 -18.56122 115.38283 36000 ft 505 kts 353°
2026-04-29 15:23 -18.49105 115.37892 36012 ft 505 kts 353°
2026-04-29 15:23 -18.42087 115.37502 36016 ft 505 kts 353°
2026-04-29 15:24 -18.35072 115.37112 36013 ft 505 kts 353°
2026-04-29 15:24 -18.28054 115.36722 36008 ft 505 kts 353°
2026-04-29 15:25 -18.21045 115.36333 36012 ft 505 kts 353°
2026-04-29 15:25 -18.14030 115.35944 36005 ft 504 kts 353°
2026-04-29 15:26 -18.07023 115.35556 36009 ft 504 kts 353°
2026-04-29 15:26 -18.00014 115.35168 36003 ft 504 kts 353°
2026-04-29 15:27 -17.93004 115.34779 36013 ft 504 kts 353°
2026-04-29 15:27 -17.85996 115.34393 36010 ft 504 kts 353°
2026-04-29 15:28 -17.78992 115.34006 36005 ft 504 kts 353°
2026-04-29 15:28 -17.71980 115.33619 36010 ft 504 kts 353°
2026-04-29 15:29 -17.64974 115.33232 36008 ft 504 kts 354°
2026-04-29 15:30 -17.50969 115.32462 36008 ft 504 kts 353°
2026-04-29 15:30 -17.43963 115.32076 36009 ft 504 kts 353°
2026-04-29 15:31 -17.36965 115.31691 36004 ft 504 kts 354°
2026-04-29 15:31 -17.29958 115.31306 36007 ft 504 kts 354°
2026-04-29 15:32 -17.22965 115.30922 36004 ft 503 kts 354°
2026-04-29 15:32 -17.15969 115.30539 36004 ft 504 kts 354°
2026-04-29 15:33 -17.09017 115.30158 36004 ft 504 kts 354°
2026-04-29 15:33 -17.01979 115.29772 36003 ft 503 kts 354°
2026-04-29 15:34 -16.95027 115.29392 36004 ft 503 kts 354°
2026-04-29 15:34 -16.88035 115.29010 35999 ft 503 kts 354°
2026-04-29 15:35 -16.81038 115.28627 35999 ft 503 kts 354°
2026-04-29 15:35 -16.74043 115.28245 35995 ft 503 kts 354°
2026-04-29 15:36 -16.67060 115.27864 36000 ft 503 kts 354°
2026-04-29 15:36 -16.60070 115.27483 35998 ft 503 kts 354°
2026-04-29 15:37 -16.53087 115.27103 35998 ft 503 kts 354°
2026-04-29 15:37 -16.46107 115.26722 35998 ft 503 kts 354°
2026-04-29 15:38 -16.39119 115.26342 36000 ft 503 kts 354°
2026-04-29 15:38 -16.32136 115.25963 35996 ft 503 kts 354°
2026-04-29 15:39 -16.25153 115.25583 36003 ft 503 kts 354°
2026-04-29 15:39 -16.18169 115.25204 35995 ft 503 kts 354°
2026-04-29 15:40 -16.11183 115.24825 35992 ft 502 kts 354°
2026-04-29 15:40 -16.04205 115.24447 35992 ft 502 kts 354°
2026-04-29 15:41 -15.97232 115.24069 35990 ft 502 kts 354°
2026-04-29 15:41 -15.90262 115.23692 35991 ft 502 kts 354°
2026-04-29 15:42 -15.83298 115.23315 35988 ft 502 kts 354°
2026-04-29 15:42 -15.76330 115.22939 35987 ft 501 kts 353°
2026-04-29 15:43 -15.69371 115.22563 35989 ft 500 kts 353°
2026-04-29 15:43 -15.62418 115.22187 35985 ft 500 kts 353°
2026-04-29 15:44 -15.55477 115.21812 35986 ft 500 kts 353°
2026-04-29 15:44 -15.48509 115.21437 35979 ft 500 kts 353°
2026-04-29 15:45 -15.41571 115.21063 35982 ft 499 kts 353°
2026-04-29 15:45 -15.34632 115.20690 35982 ft 499 kts 353°
2026-04-29 15:46 -15.27688 115.20316 35984 ft 499 kts 353°
2026-04-29 15:46 -15.20752 115.19943 35979 ft 499 kts 353°
2026-04-29 15:47 -15.13859 115.19573 35979 ft 498 kts 353°
2026-04-29 15:47 -15.06966 115.19203 35977 ft 497 kts 353°
2026-04-29 15:47 -15.03497 115.19017 36128 ft 496 kts 353°
2026-04-29 15:48 -15.00066 115.18834 36487 ft 493 kts 353°
2026-04-29 15:48 -14.96649 115.18652 36875 ft 490 kts 353°
2026-04-29 15:48 -14.93262 115.18471 37218 ft 487 kts 352°
2026-04-29 15:48 -14.89882 115.18290 37507 ft 486 kts 352°
2026-04-29 15:49 -14.86511 115.18109 37765 ft 484 kts 352°
2026-04-29 15:49 -14.83144 115.17928 37955 ft 485 kts 352°
2026-04-29 15:49 -14.79779 115.17746 37974 ft 485 kts 352°
2026-04-29 15:50 -14.73046 115.17385 37972 ft 484 kts 352°
2026-04-29 15:50 -14.66319 115.17024 37972 ft 484 kts 352°
2026-04-29 15:51 -14.59591 115.16664 37964 ft 484 kts 352°
2026-04-29 15:51 -14.52867 115.16305 37963 ft 484 kts 352°
2026-04-29 15:52 -14.46150 115.15946 37965 ft 483 kts 352°
2026-04-29 15:52 -14.39431 115.15588 37965 ft 483 kts 352°
2026-04-29 15:53 -14.32714 115.15230 37967 ft 483 kts 352°
2026-04-29 15:53 -14.26000 115.14872 37969 ft 483 kts 352°
2026-04-29 15:54 -14.19286 115.14513 37964 ft 483 kts 353°
2026-04-29 15:54 -14.12559 115.14156 37965 ft 484 kts 353°
2026-04-29 15:55 -14.05805 115.14085 37963 ft 486 kts 356°
2026-04-29 15:55 -13.99038 115.14206 37964 ft 486 kts 356°
2026-04-29 15:56 -13.92280 115.14290 37960 ft 486 kts 356°
2026-04-29 15:56 -13.85523 115.14327 37955 ft 485 kts 356°
2026-04-29 15:57 -13.78779 115.14349 37959 ft 484 kts 356°
2026-04-29 15:57 -13.72039 115.14371 37977 ft 484 kts 356°
2026-04-29 15:58 -13.65302 115.14395 37956 ft 484 kts 356°
2026-04-29 15:58 -13.58610 115.14420 37952 ft 484 kts 356°
2026-04-29 15:59 -13.51831 115.14444 37964 ft 483 kts 357°
2026-04-29 15:59 -13.45159 115.14469 37966 ft 482 kts 357°
2026-04-29 16:00 -13.38449 115.14495 37959 ft 482 kts 357°
2026-04-29 16:00 -13.31737 115.14519 37949 ft 482 kts 357°
2026-04-29 16:01 -13.26158 115.14540 37944 ft 482 kts 357°
2026-04-29 16:01 -13.19443 115.14564 37959 ft 482 kts 357°
2026-04-29 16:02 -13.12730 115.14589 37959 ft 482 kts 357°
2026-04-29 16:02 -13.06020 115.14614 37961 ft 482 kts 357°
2026-04-29 16:03 -12.99304 115.14638 37943 ft 482 kts 357°
2026-04-29 16:03 -12.92588 115.14663 37943 ft 483 kts 357°
2026-04-29 16:04 -12.85869 115.14688 37946 ft 483 kts 357°
2026-04-29 16:04 -12.79157 115.14712 37945 ft 484 kts 357°
2026-04-29 16:05 -12.72404 115.14737 37941 ft 484 kts 357°
2026-04-29 16:05 -12.65678 115.14762 37954 ft 484 kts 357°
2026-04-29 16:06 -12.58945 115.14786 37944 ft 484 kts 357°
2026-04-29 16:06 -12.52225 115.14811 37946 ft 482 kts 358°
2026-04-29 16:07 -12.45517 115.14836 37948 ft 481 kts 358°
2026-04-29 16:07 -12.38813 115.14860 37947 ft 481 kts 358°
2026-04-29 16:08 -12.32118 115.14884 37944 ft 481 kts 358°
2026-04-29 16:08 -12.25417 115.14909 37940 ft 481 kts 358°
2026-04-29 16:09 -12.18713 115.14932 37944 ft 482 kts 358°
2026-04-29 16:09 -12.12054 115.14957 37941 ft 482 kts 358°
2026-04-29 16:10 -12.05343 115.14982 37944 ft 482 kts 358°
2026-04-29 16:10 -11.98630 115.15006 37938 ft 482 kts 358°
2026-04-29 16:11 -11.91921 115.15033 37934 ft 482 kts 358°
2026-04-29 16:11 -11.85214 115.15061 37931 ft 482 kts 358°
2026-04-29 16:12 -11.78502 115.15090 37931 ft 482 kts 358°
2026-04-29 16:12 -11.71787 115.15118 37936 ft 482 kts 358°
2026-04-29 16:13 -11.65076 115.15145 37930 ft 482 kts 358°
2026-04-29 16:13 -11.58362 115.15173 37932 ft 482 kts 358°
2026-04-29 16:14 -11.51660 115.15200 37933 ft 481 kts 358°
2026-04-29 16:14 -11.44976 115.15228 37935 ft 480 kts 358°
2026-04-29 16:15 -11.38289 115.15256 37933 ft 481 kts 358°
2026-04-29 16:15 -11.31597 115.15284 37932 ft 481 kts 358°
2026-04-29 16:16 -11.24916 115.15311 37931 ft 480 kts 359°
2026-04-29 16:16 -11.18239 115.15339 37927 ft 479 kts 359°
2026-04-29 16:17 -11.11585 115.15367 37926 ft 478 kts 359°
2026-04-29 16:17 -11.04938 115.15396 37928 ft 478 kts 359°
2026-04-29 16:18 -10.98270 115.15425 37928 ft 478 kts 359°
2026-04-29 16:18 -10.91611 115.15454 37919 ft 478 kts 359°
2026-04-29 16:19 -10.84951 115.15482 37925 ft 480 kts 359°
2026-04-29 16:19 -10.78265 115.15510 37922 ft 480 kts 358°
2026-04-29 16:20 -10.71630 115.15538 37926 ft 480 kts 359°
2026-04-29 16:20 -10.64946 115.15568 37923 ft 480 kts 359°
2026-04-29 16:21 -10.58265 115.15595 37920 ft 480 kts 359°
2026-04-29 16:21 -10.51584 115.15619 37921 ft 480 kts 359°
2026-04-29 16:22 -10.44901 115.15646 37914 ft 480 kts 359°
2026-04-29 16:22 -10.38212 115.15673 37916 ft 480 kts 359°
2026-04-29 16:23 -10.31538 115.15701 37919 ft 480 kts 359°
2026-04-29 16:23 -10.24851 115.15728 37926 ft 480 kts 359°
2026-04-29 16:24 -10.18199 115.15755 37922 ft 477 kts 359°
2026-04-29 16:24 -10.11561 115.15782 37920 ft 476 kts 359°
2026-04-29 16:25 -10.04934 115.15809 37919 ft 476 kts 359°
2026-04-29 16:25 -9.98306 115.15835 37915 ft 476 kts 359°
2026-04-29 16:26 -9.91687 115.15862 37916 ft 476 kts 359°
2026-04-29 16:26 -9.85053 115.15888 37918 ft 476 kts 359°
2026-04-29 16:27 -9.78430 115.15915 37915 ft 476 kts 359°
2026-04-29 16:27 -9.71804 115.15942 37913 ft 476 kts 359°
2026-04-29 16:28 -9.65174 115.15969 37911 ft 476 kts 359°
2026-04-29 16:28 -9.58542 115.15995 37912 ft 476 kts 360°
2026-04-29 16:29 -9.51911 115.16022 37915 ft 478 kts 360°
2026-04-29 16:29 -9.45266 115.16049 37913 ft 478 kts 360°
2026-04-29 16:30 -9.38611 115.16076 37914 ft 478 kts
2026-04-29 16:30 -9.31957 115.16103 37916 ft 478 kts
2026-04-29 16:31 -9.25312 115.16129 37906 ft 478 kts
2026-04-29 16:31 -9.18648 115.16156 37913 ft 479 kts
2026-04-29 16:32 -9.11977 115.16183 37911 ft 479 kts
2026-04-29 16:32 -9.05292 115.16210 37904 ft 480 kts
2026-04-29 16:33 -8.95330 115.16250 37907 ft 479 kts
2026-04-29 16:33 -8.88608 115.16277 37907 ft 480 kts
2026-04-29 16:34 -8.81908 115.16303 37911 ft 482 kts
2026-04-29 16:34 -8.75190 115.16330 37909 ft 483 kts
2026-04-29 16:35 -8.68537 115.16185 37912 ft 483 kts 357°
2026-04-29 16:35 -8.61821 115.15833 37908 ft 483 kts 357°
2026-04-29 16:36 -8.55106 115.15492 37910 ft 482 kts 357°
2026-04-29 16:36 -8.48414 115.15191 37916 ft 481 kts 358°
2026-04-29 16:37 -8.41726 115.14907 37922 ft 481 kts 358°
2026-04-29 16:37 -8.36123 115.14671 37919 ft 481 kts 358°
2026-04-29 16:38 -8.28350 115.14342 37923 ft 481 kts 358°
2026-04-29 16:38 -8.21668 115.14057 37921 ft 481 kts 358°
2026-04-29 16:39 -8.14980 115.13773 37923 ft 481 kts 358°
2026-04-29 16:39 -8.08288 115.13489 37913 ft 481 kts 358°
2026-04-29 16:40 -8.01607 115.13205 37913 ft 481 kts 358°
2026-04-29 16:40 -7.94914 115.12921 37902 ft 481 kts 358°
2026-04-29 16:41 -7.88223 115.12636 37893 ft 482 kts 358°
2026-04-29 16:41 -7.81505 115.12351 37901 ft 484 kts 358°
2026-04-29 16:42 -7.74774 115.12066 37897 ft 484 kts 358°
2026-04-29 16:42 -7.68039 115.11780 37897 ft 485 kts 358°
2026-04-29 16:43 -7.61298 115.11495 37897 ft 485 kts 358°
2026-04-29 16:43 -7.54605 115.11210 37892 ft 485 kts 358°
2026-04-29 16:44 -7.47799 115.10922 37900 ft 487 kts 359°
2026-04-29 16:44 -7.41062 115.10637 37894 ft 488 kts 359°
2026-04-29 16:45 -7.34277 115.10350 37895 ft 488 kts 359°
2026-04-29 16:45 -7.27495 115.10065 37894 ft 488 kts 358°
2026-04-29 16:46 -7.20717 115.09776 37893 ft 488 kts 359°
2026-04-29 16:46 -7.13914 115.09488 37890 ft 490 kts 358°
2026-04-29 16:47 -7.07097 115.09200 37892 ft 490 kts 358°
2026-04-29 16:47 -7.01427 115.08959 37891 ft 490 kts 358°
2026-04-29 16:48 -6.94613 115.08670 37891 ft 490 kts 358°
2026-04-29 16:48 -6.87793 115.08381 37888 ft 490 kts 358°
2026-04-29 16:49 -6.80954 115.08090 37886 ft 492 kts 358°
2026-04-29 16:49 -6.74106 115.07718 37887 ft 493 kts 358°
2026-04-29 16:50 -6.67254 115.07310 37889 ft 493 kts 357°
2026-04-29 16:50 -6.60409 115.06911 37886 ft 493 kts 358°
2026-04-29 16:51 -6.53562 115.06519 37887 ft 493 kts 358°
2026-04-29 16:51 -6.46708 115.06132 37884 ft 493 kts 358°
2026-04-29 16:52 -6.39856 115.05746 37880 ft 493 kts 358°
2026-04-29 16:52 -6.33008 115.05359 37881 ft 493 kts 358°
2026-04-29 16:53 -6.26148 115.04971 37881 ft 493 kts 358°
2026-04-29 16:53 -6.19303 115.04586 37882 ft 493 kts 358°
2026-04-29 16:54 -6.12442 115.04200 37884 ft 494 kts 358°
2026-04-29 16:54 -6.05586 115.03813 37881 ft 494 kts 358°
2026-04-29 16:55 -6.02155 115.03620 37881 ft 494 kts 358°